Regional Weather Roundup
Issued by NWS Charleston, WV

Home | Current Version | Previous Version | Graphics & Text | Print | Product List | Glossary On
Versions: 1 2 3 4 5 6 7 8 9 10 11 12 13 14 15 16 17 18 19 20 21 22 23 24 25 26 27 28 29 30 31 32 33 34 35 36 37 38 39 40 41 42 43 44 45 46 47 48 49 50
000
ASUS41 KRLX 060710
RWRRLX
West Virginia Regional Weather Roundup
National Weather Service Charleston WV
200 AM EST SAT FEB 06 2016

Note: "fair" indicates few or no clouds below 12,000 feet with no
significant weather and/or obstructions to visibility.

WVZ003-060800-
Northern Panhandle of West Virginia

CITY           SKY/WX    TMP DP  RH WIND       PRES   REMARKS
WHEELING       CLOUDY    30  16  56 S8        30.30F
$$

WVZ009-060800-
Northwest West Virginia

CITY           SKY/WX    TMP DP  RH WIND       PRES   REMARKS
PARKERSBURG      N/A     28  16  60 S6        30.36F
$$

WVZ006-060800-
Western West Virginia

CITY           SKY/WX    TMP DP  RH WIND       PRES   REMARKS
HUNTINGTON       N/A     28  18  66 S3        30.35F
$$

WVZ015-060800-
West Central West Virginia

CITY           SKY/WX    TMP DP  RH WIND       PRES   REMARKS
CHARLESTON       N/A     27  19  72 CALM      30.36S
$$

WVZ022-031-060800-
North Central West Virginia

CITY           SKY/WX    TMP DP  RH WIND       PRES   REMARKS
CLARKSBURG       N/A     25  17  72 CALM      30.34F
MORGANTOWN       N/A     25  16  68 S3        30.34F
$$

WVZ025-035-042-045-060800-
Southern West Virginia

CITY           SKY/WX    TMP DP  RH WIND       PRES   REMARKS
BECKLEY          N/A     22  14  71 S5        30.31F
LOGAN            N/A     28  16  59 CALM      30.33F
BLUEFIELD        N/A     25  10  53 CALM      30.31S
LEWISBURG        N/A     23  17  79 CALM      30.33S
$$

WVZ047-060800-
Northern Mountains of West Virginia

CITY           SKY/WX    TMP DP  RH WIND       PRES   REMARKS
ELKINS           N/A     19  15  84 CALM      30.33F
$$

WVZ052-060800-
Eastern Panhandle of West Virginia

CITY           SKY/WX    TMP DP  RH WIND       PRES   REMARKS
MARTINSBURG      N/A     23  16  74 CALM      30.38F
PETERSBURG       N/A     24  20  86 CALM      30.38S
$$



USA.gov is the U.S. government's official web portal to all federal, state and local government web resources and services.